[Date Prev][Date Next][Thread Prev][Thread Next] - [Date Index][Thread Index][Author Index]

2 Line ISS Keps 8-8



ISS
1 25544U 98067A   02220.15028755  .00019974  00000-0  27256-3 0   243
2 25544  51.6373 152.1096 0017960 115.9072  15.9712 15.57306576212138


----
Via the sarex mailing list at AMSAT.ORG courtesy of AMSAT-NA.
To unsubscribe, send "unsubscribe sarex" to Majordomo@amsat.org



AMSAT Top AMSAT Home